When you browse on this site, cookies collect data to enhance your experience and personalize the content and advertising you see.
Visit our Privacy Policy to learn more. By continuing to use the site, you agree to this use of cookies and data.
  • In Netherlands
  • List of Countries
  • For 7 days
  • Water Temperature
  • Weather Map
  • Weather Widgets
  • user-avatar
    Login

    Hourly Weather Newport

    Today, 18 August, Sunday

    Time Temperature Precipitation Wind Pressure Humidity
    00:00 +15°C° 0.1 mm 5 mps 750 mmHg 87%
    01:00 +15°C° 0.1 mm 5 mps 750 mmHg 88%
    02:00 +15°C° 0.1 mm 5 mps 749 mmHg 89%
    03:00 +14°C° 0.1 mm 5 mps 749 mmHg 90%
    04:00 +14°C° 0.2 mm 5 mps 749 mmHg 89%
    05:00 +15°C° 0.2 mm 5 mps 749 mmHg 88%
    06:00 +15°C° 0.2 mm 5 mps 749 mmHg 87%
    07:00 +15°C° 0.1 mm 6 mps 749 mmHg 80%
    08:00 +16°C° 0.1 mm 8 mps 750 mmHg 72%
    09:00 +17°C° 0.1 mm 9 mps 750 mmHg 65%
    10:00 +18°C° 0 mm 9 mps 751 mmHg 64%
    11:00 +18°C° 0 mm 10 mps 751 mmHg 62%
    12:00 +18°C° 0 mm 10 mps 751 mmHg 60%
    13:00 +19°C° 0 mm 10 mps 752 mmHg 61%
    14:00 +19°C° 0 mm 11 mps 752 mmHg 62%
    15:00 +19°C° 0 mm 11 mps 752 mmHg 63%
    16:00 +18°C° 0.1 mm 10 mps 753 mmHg 66%
    17:00 +17°C° 0.1 mm 10 mps 753 mmHg 69%
    18:00 +17°C° 0.1 mm 9 mps 753 mmHg 71%
    19:00 +16°C° 0 mm 9 mps 753 mmHg 73%
    20:00 +15°C° 0 mm 9 mps 754 mmHg 75%
    21:00 +13°C° 0 mm 8 mps 754 mmHg 76%
    22:00 +13°C° 0 mm 8 mps 754 mmHg 77%
    23:00 +13°C° 0 mm 8 mps 755 mmHg 77%

    Tomorrow, 19 August, Monday

    Time Temperature Precipitation Wind Pressure Humidity
    00:00 +13°C° 0 mm 8 mps 755 mmHg 78%
    01:00 +12°C° 0 mm 8 mps 755 mmHg 79%
    02:00 +12°C° 0 mm 8 mps 755 mmHg 80%
    03:00 +12°C° 0 mm 8 mps 756 mmHg 81%
    04:00 +12°C° 0 mm 7 mps 756 mmHg 82%
    05:00 +14°C° 0 mm 7 mps 756 mmHg 83%
    06:00 +14°C° 0 mm 7 mps 756 mmHg 85%
    07:00 +15°C° 0 mm 7 mps 757 mmHg 79%
    08:00 +16°C° 0 mm 7 mps 757 mmHg 74%
    09:00 +17°C° 0 mm 8 mps 757 mmHg 68%
    10:00 +17°C° 0.1 mm 8 mps 758 mmHg 67%
    11:00 +18°C° 0.1 mm 8 mps 758 mmHg 65%
    12:00 +18°C° 0.1 mm 8 mps 758 mmHg 64%
    13:00 +18°C° 0.1 mm 8 mps 758 mmHg 65%
    14:00 +18°C° 0.1 mm 8 mps 758 mmHg 65%
    15:00 +18°C° 0.1 mm 9 mps 759 mmHg 66%
    16:00 +17°C° 0.1 mm 8 mps 759 mmHg 68%
    17:00 +17°C° 0.1 mm 7 mps 759 mmHg 69%
    18:00 +17°C° 0.1 mm 7 mps 759 mmHg 71%
    19:00 +15°C° 0 mm 6 mps 760 mmHg 75%
    20:00 +14°C° 0 mm 5 mps 760 mmHg 78%
    21:00 +13°C° 0 mm 5 mps 761 mmHg 82%
    22:00 +12°C° 0 mm 5 mps 761 mmHg 83%
    23:00 +12°C° 0 mm 5 mps 761 mmHg 85%

    Day after tomorrow, 20 August, Tuesday

    Time Temperature Precipitation Wind Pressure Humidity
    00:00 +12°C° 0 mm 4 mps 761 mmHg 86%
    01:00 +11°C° 0 mm 4 mps 761 mmHg 87%
    02:00 +11°C° 0 mm 4 mps 761 mmHg 87%
    03:00 +11°C° 0 mm 4 mps 762 mmHg 87%
    04:00 +11°C° 0 mm 4 mps 762 mmHg 87%
    05:00 +11°C° 0 mm 4 mps 762 mmHg 88%
    06:00 +11°C° 0 mm 4 mps 762 mmHg 88%
    07:00 +12°C° 0 mm 4 mps 763 mmHg 79%
    08:00 +14°C° 0 mm 4 mps 763 mmHg 70%
    09:00 +17°C° 0 mm 4 mps 764 mmHg 61%
    10:00 +17°C° 0 mm 4 mps 764 mmHg 59%
    11:00 +17°C° 0 mm 5 mps 764 mmHg 57%
    12:00 +19°C° 0 mm 5 mps 764 mmHg 56%
    13:00 +19°C° 0 mm 5 mps 765 mmHg 58%
    14:00 +19°C° 0 mm 6 mps 765 mmHg 60%
    15:00 +20°C° 0 mm 7 mps 765 mmHg 62%
    16:00 +19°C° 0 mm 6 mps 765 mmHg 65%
    17:00 +19°C° 0 mm 6 mps 765 mmHg 69%
    18:00 +17°C° 0 mm 6 mps 765 mmHg 72%
    19:00 +16°C° 0 mm 5 mps 766 mmHg 77%
    20:00 +15°C° 0 mm 4 mps 766 mmHg 81%
    21:00 +14°C° 0 mm 4 mps 767 mmHg 86%
    22:00 +13°C° 0 mm 3 mps 767 mmHg 87%
    23:00 +13°C° 0 mm 3 mps 767 mmHg 88%

    21 August, Wednesday

    Time Temperature Precipitation Wind Pressure Humidity
    00:00 +13°C° 0 mm 2 mps 767 mmHg 89%
    01:00 +13°C° 0 mm 2 mps 766 mmHg 89%
    02:00 +13°C° 0 mm 1 mps 766 mmHg 89%
    03:00 +13°C° 0 mm 1 mps 766 mmHg 89%
    04:00 +13°C° 0 mm 1 mps 766 mmHg 88%
    05:00 +14°C° 0 mm 1 mps 766 mmHg 86%
    06:00 +14°C° 0 mm 1 mps 766 mmHg 85%
    07:00 +15°C° 0 mm 1 mps 767 mmHg 80%
    08:00 +18°C° 0 mm 1 mps 767 mmHg 75%
    09:00 +18°C° 0 mm 2 mps 767 mmHg 70%
    10:00 +19°C° 0 mm 2 mps 767 mmHg 68%
    11:00 +19°C° 0 mm 3 mps 767 mmHg 67%
    12:00 +20°C° 0 mm 3 mps 766 mmHg 65%
    13:00 +20°C° 0 mm 4 mps 766 mmHg 65%
    14:00 +20°C° 0 mm 4 mps 766 mmHg 64%
    15:00 +19°C° 0 mm 4 mps 766 mmHg 63%
    16:00 +19°C° 0 mm 4 mps 766 mmHg 66%
    17:00 +18°C° 0 mm 4 mps 766 mmHg 69%
    18:00 +18°C° 0 mm 4 mps 766 mmHg 72%
    19:00 +17°C° 0 mm 4 mps 766 mmHg 77%
    20:00 +16°C° 0 mm 3 mps 766 mmHg 81%
    21:00 +14°C° 0 mm 3 mps 766 mmHg 86%
    22:00 +13°C° 0 mm 3 mps 766 mmHg 87%
    23:00 +13°C° 0 mm 3 mps 766 mmHg 88%

    22 August, Thursday

    Time Temperature Precipitation Wind Pressure Humidity
    00:00 +13°C° 0 mm 3 mps 766 mmHg 89%
    01:00 +12°C° 0 mm 3 mps 766 mmHg 89%
    02:00 +12°C° 0 mm 3 mps 766 mmHg 90%
    03:00 +13°C° 0 mm 2 mps 766 mmHg 91%
    04:00 +13°C° 0 mm 2 mps 766 mmHg 90%
    05:00 +13°C° 0 mm 2 mps 766 mmHg 90%
    06:00 +13°C° 0 mm 1 mps 766 mmHg 90%
    07:00 +15°C° 0 mm 1 mps 766 mmHg 83%
    08:00 +16°C° 0 mm 2 mps 767 mmHg 76%
    09:00 +18°C° 0 mm 2 mps 767 mmHg 69%
    10:00 +18°C° 0 mm 2 mps 767 mmHg 66%
    11:00 +19°C° 0 mm 2 mps 766 mmHg 62%
    12:00 +20°C° 0 mm 2 mps 766 mmHg 59%
    13:00 +20°C° 0 mm 3 mps 766 mmHg 59%
    14:00 +20°C° 0 mm 3 mps 766 mmHg 59%
    15:00 +20°C° 0 mm 3 mps 766 mmHg 59%
    16:00 +20°C° 0 mm 3 mps 766 mmHg 62%
    17:00 +19°C° 0 mm 2 mps 765 mmHg 65%
    18:00 +18°C° 0 mm 2 mps 765 mmHg 68%
    19:00 +18°C° 0 mm 1 mps 765 mmHg 71%
    20:00 +16°C° 0 mm 1 mps 765 mmHg 73%
    21:00 +14°C° 0 mm 0 mps 766 mmHg 76%
    22:00 +14°C° 0 mm 1 mps 765 mmHg 77%
    23:00 +14°C° 0 mm 1 mps 765 mmHg 78%

    23 August, Friday

    Time Temperature Precipitation Wind Pressure Humidity
    00:00 +14°C° 0 mm 2 mps 765 mmHg 79%
    01:00 +14°C° 0 mm 2 mps 765 mmHg 79%
    02:00 +14°C° 0 mm 2 mps 764 mmHg 79%
    03:00 +13°C° 0 mm 3 mps 764 mmHg 79%
    04:00 +13°C° 0 mm 3 mps 764 mmHg 78%
    05:00 +13°C° 0 mm 4 mps 764 mmHg 77%
    06:00 +14°C° 0 mm 4 mps 764 mmHg 76%
    07:00 +17°C° 0 mm 4 mps 763 mmHg 73%
    08:00 +19°C° 0 mm 5 mps 763 mmHg 70%
    09:00 +21°C° 0 mm 5 mps 763 mmHg 66%
    10:00 +21°C° 0 mm 5 mps 763 mmHg 62%
    11:00 +22°C° 0 mm 5 mps 763 mmHg 58%
    12:00 +23°C° 0 mm 5 mps 762 mmHg 54%
    13:00 +23°C° 0 mm 5 mps 762 mmHg 54%
    14:00 +23°C° 0 mm 5 mps 761 mmHg 54%
    15:00 +23°C° 0 mm 4 mps 761 mmHg 54%
    16:00 +23°C° 0 mm 4 mps 761 mmHg 59%
    17:00 +22°C° 0 mm 4 mps 760 mmHg 63%
    18:00 +21°C° 0 mm 4 mps 760 mmHg 68%
    19:00 +20°C° 0 mm 4 mps 760 mmHg 69%
    20:00 +19°C° 0 mm 4 mps 760 mmHg 71%
    21:00 +17°C° 0 mm 5 mps 760 mmHg 72%
    22:00 +18°C° 0 mm 4 mps 760 mmHg 73%
    23:00 +18°C° 0 mm 4 mps 760 mmHg 73%
    Show more